User: anonymous   Login
Location: Unspecified
(0.0000°N, 0.0000°E)
Time: 01:04:49
(UTC+00:00)
Language:

STARLINK-31715 - Orbit

View from above orbital plane
View from above orbital plane
View from above satellite
View from above satellite

Ground track
Ground track

The orbit is defined by the following mean orbital elements,

1 59384U          26145.57093947 +.00000000 +00000-0 +33999-4 0 00001
2 59384  53.1607 258.4635 0001197  80.3772 279.7364 15.30186220    07
Epoch (UTC): 25 May 2026 13:42:09
Eccentricity: 0.0001197
inclination: 53.1607°
perigee height: 474 km
apogee height: 476 km
right ascension of ascending node: 258.4635°
argument of perigee: 80.3772°
revolutions per day: 15.30186220
mean anomaly at epoch: 279.7364°

The dashed part of the orbit path shows where the satellite is in the earth's shadow,  

DLR